Weather History for Atlantic City, NJ

Change the Weather History Date:

Monday, March 4, 2013

  Actual Average Record
Temperature  
Mean Temperature 37 °F 39 °F  
Max Temperature 43 °F 48 °F 76 °F (1974)
Min Temperature 30 °F 29 °F 3 °F (2009)
Degree Days  
Heating Degree Days 28 26  
Month to date heating degree days 116 106  
Since 1 July heating degree days 3534 3697  
Cooling Degree Days 0 0  
Month to date cooling degree days 0 0  
Year to date cooling degree days 0 0  
Moisture  
Dew Point 18 °F    
Average Humidity 50    
Maximum Humidity 63    
Minimum Humidity 36    
Precipitation  
Precipitation 0.00 in 0.13 in 2.51 in (1993)
Month to date precipitation T 0.50  
Year to date precipitation 7.46 6.59  
Snow  
Snow 0.00 in 0.00 in 0.40 in (1960)
Month to date snowfall T 0.3  
Since 1 July snowfall 11.4 15.4  
Snow Depth 0.00 in    
Sea Level Pressure  
Sea Level Pressure 29.87 in    
Wind  
Wind Speed 17 mph (WNW)    
Max Wind Speed 26 mph    
Max Gust Speed 33 mph    
Visibility 10 miles    
Events      
T = Trace of Precipitation, MM = Missing Value Source: NWS Daily Summary

Daily Weather History Graph

Daily Weather History Graph

Search for Another Location

Airport:

Trip Planner

Search our weather history database for the weather conditions in past years. The results will help you decide how hot, cold, wet, or windy it might be!

Date:

Astronomy

Mar. 04, 2013 Rise Set
Actual Time 6:26 AM EST 5:54 PM EST
Civil Twilight 5:59 AM EST 6:20 PM EST
Nautical Twilight 5:28 AM EST 6:52 PM EST
Astronomical Twilight 4:57 AM EST 7:23 PM EST
Moon 12:32 AM EST (3/4) 10:34 AM EST (3/4)
Length of Visible Light 12h 21m
Length of Day
11h 27m
Waning Gibbous, 52% of the Moon is Illuminated
Mar 4
Waning Gibbous
Mar 4
Last Quarter
Mar 11
New
Mar 19
First Quarter
Mar 27
Full

Hourly Weather History & Observations

Time (EST) Temp. Windchill Dew Point Humidity Pressure Visibility Wind Dir Wind Speed Gust Speed Precip Events Conditions
12:54 AM 30.9 °F 24.3 °F 19.9 °F 64% 29.81 in 10.0 mi NW 6.9 mph - N/A   Overcast
1:54 AM 30.9 °F 26.2 °F 19.9 °F 64% 29.82 in 10.0 mi West 4.6 mph - N/A   Overcast
2:54 AM 32.0 °F 22.5 °F 18.0 °F 56% 29.82 in 10.0 mi WNW 12.7 mph - N/A   Overcast
3:54 AM 30.9 °F 20.2 °F 16.0 °F 54% 29.83 in 10.0 mi NW 15.0 mph - N/A   Overcast
4:54 AM 30.0 °F 20.0 °F 15.1 °F 54% 29.84 in 10.0 mi WNW 12.7 mph - N/A   Overcast
5:54 AM 30.9 °F 19.8 °F 17.1 °F 57% 29.85 in 10.0 mi NW 16.1 mph - N/A   Overcast
6:54 AM 30.9 °F 19.8 °F 17.1 °F 57% 29.86 in 10.0 mi NW 16.1 mph - N/A   Overcast
7:54 AM 30.9 °F 18.7 °F 16.0 °F 54% 29.88 in 10.0 mi WNW 19.6 mph 25.3 mph N/A   Overcast
8:54 AM 34.0 °F 21.5 °F 16.0 °F 48% 29.87 in 10.0 mi NW 24.2 mph 29.9 mph N/A   Mostly Cloudy
9:54 AM 35.1 °F 23.5 °F 17.1 °F 48% 29.87 in 10.0 mi NW 21.9 mph 32.2 mph N/A   Scattered Clouds
10:54 AM 37.0 °F 27.0 °F 16.0 °F 42% 29.87 in 10.0 mi WNW 18.4 mph 31.1 mph N/A   Partly Cloudy
11:54 AM 39.0 °F 29.0 °F 17.1 °F 41% 29.86 in 10.0 mi WNW 20.7 mph 27.6 mph N/A   Clear
12:54 PM 41.0 °F 31.4 °F 17.1 °F 38% 29.85 in 10.0 mi WNW 21.9 mph 28.8 mph N/A   Clear
1:54 PM 43.0 °F 35.1 °F 18.0 °F 37% 29.83 in 10.0 mi WNW 17.3 mph 26.5 mph N/A   Clear
2:54 PM 42.1 °F 32.8 °F 18.0 °F 38% 29.83 in 10.0 mi WNW 21.9 mph 31.1 mph N/A   Clear
3:54 PM 41.0 °F 30.9 °F 18.0 °F 40% 29.83 in 10.0 mi WNW 24.2 mph 29.9 mph N/A   Clear
4:54 PM 39.9 °F 30.5 °F 18.0 °F 41% 29.85 in 10.0 mi West 19.6 mph 25.3 mph N/A   Clear
5:54 PM 37.0 °F 28.1 °F 18.0 °F 46% 29.87 in 10.0 mi WNW 15.0 mph - N/A   Clear
6:54 PM 36.0 °F 26.0 °F 18.0 °F 48% 29.90 in 10.0 mi West 17.3 mph 23.0 mph N/A   Clear
7:54 PM 34.0 °F 23.4 °F 18.0 °F 52% 29.92 in 10.0 mi WNW 17.3 mph - N/A   Clear
8:54 PM 33.1 °F 22.2 °F 18.0 °F 54% 29.94 in 10.0 mi WNW 17.3 mph - N/A   Clear
9:54 PM 33.1 °F 23.0 °F 18.0 °F 54% 29.95 in 10.0 mi WNW 15.0 mph - N/A   Clear
10:54 PM 32.0 °F 23.0 °F 18.0 °F 56% 29.95 in 10.0 mi West 11.5 mph 21.9 mph N/A   Clear
11:54 PM 30.9 °F 20.7 °F 18.0 °F 59% 29.96 in 10.0 mi WNW 13.8 mph - N/A   Clear